Visibility
12.9 13.5 15.0 9.0 13.8 13.5 5.0 3.5 5.2 0.6 11.0 14.8 12.9 14.0 15.0 9.8 3.8 5.7 4.0 3.8 12.3 9.3 8.1 15.0 15.0 15.0 15.0 15.0 15.0 15.0 15.0 15.0 15.0 15.0 15.0 15.0 15.0 15.0
15.0 15.0 15.0 15.0 15.0 12.8 10.0 15.0 12.1 3.8 2.0 15.0 8.7 4.2 7.8 6.0 8.4 4.0 5.1 7.0 15.0 15.0 15.0 15.0 15.0 15.0 15.0 15.0 15.0 15.0 15.0 15.0 15.0 15.0 15.0 15.0 15.0 15.0
15.0 15.0 15.0 15.0 15.0 15.0 14.4 6.9 15.0 15.0 11.4 0.3 3.2 0.7 0.3 4.9 6.2 5.8 12.1 15.0 15.0 15.0 15.0 15.0 15.0 15.0 15.0 15.0 15.0 15.0 15.0 15.0 15.0 15.0 15.0 15.0 15.0 15.0
15.0 15.0 15.0 15.0 15.0 9.0 15.0 15.0 4.0 2.3 6.7 2.7 0.1 0.1 9.1 12.3 15.0 15.0 15.0 15.0 15.0 15.0 15.0 15.0 15.0 15.0 15.0 15.0 15.0 15.0 15.0 15.0 15.0 15.0 15.0 15.0 15.0 15.0
15.0 15.0 15.0 15.0 13.7 15.0 15.0 15.0 8.8 12.5 11.4 4.8 15.0 15.0 15.0 15.0 15.0 15.0 15.0 15.0 15.0 15.0 15.0 15.0 15.0 15.0 15.0 15.0 15.0 15.0 15.0 15.0 15.0 15.0 15.0 15.0 15.0 15.0
15.0 15.0 15.0 15.0 9.8 8.0 11.3 1.3 14.7 11.1 15.0 15.0 15.0 15.0 15.0 15.0 15.0 15.0 15.0 15.0 15.0 15.0 15.0 15.0 15.0 15.0 15.0 15.0 15.0 15.0 15.0 15.0 15.0 15.0 15.0 15.0 15.0 15.0
0.2 2.9 0.8 13.7 15.0 3.4 0.3 0.1 0.1 15.0 9.8 12.0 15.0 15.0 15.0 15.0 15.0 15.0 15.0 15.0 15.0 15.0 15.0 15.0 15.0 15.0 15.0 15.0 15.0 15.0 15.0 15.0 15.0 15.0 15.0 15.0 15.0 15.0
0.2 0.1 0.0 0.1 15.0 11.6 0.7 0.5 15.0 15.0 15.0 15.0 15.0 15.0 15.0 15.0 15.0 15.0 15.0 15.0 15.0 15.0 15.0 15.0 15.0 15.0 15.0 15.0 15.0 15.0 15.0 15.0 15.0 15.0 15.0 15.0 15.0 15.0
15.0 15.0 15.0 15.0 15.0 15.0 15.0 15.0 15.0 15.0 15.0 15.0 15.0 15.0 15.0 15.0 15.0 15.0 15.0 15.0 15.0 15.0 15.0 15.0 15.0 15.0 15.0 15.0 15.0 15.0 15.0 15.0 15.0 15.0 15.0 15.0 15.0 15.0
15.0 15.0 15.0 15.0 15.0 15.0 15.0 15.0 15.0 15.0 15.0 15.0 15.0 15.0 15.0 15.0 15.0 15.0 15.0 15.0 15.0 15.0 15.0 6.5 15.0 15.0 15.0 15.0 15.0 15.0 15.0 15.0 15.0 15.0 15.0 15.0 15.0 15.0
15.0 15.0 15.0 15.0 15.0 15.0 15.0 15.0 15.0 15.0 15.0 15.0 15.0 15.0 15.0 15.0 15.0 15.0 15.0 15.0 15.0 15.0 15.0 14.7 15.0 15.0 15.0 15.0 15.0 15.0 15.0 15.0 15.0 15.0 15.0 15.0 15.0 15.0
15.0 15.0 15.0 15.0 15.0 15.0 15.0 15.0 15.0 15.0 15.0 15.0 15.0 15.0 15.0 15.0 15.0 15.0 15.0 15.0 4.6 10.3 15.0 9.0 5.5 4.1 13.6 14.8 15.0 15.0 15.0 15.0 15.0 15.0 15.0 15.0 15.0 15.0
15.0 15.0 15.0 15.0 15.0 15.0 15.0 15.0 15.0 15.0 15.0 15.0 15.0 15.0 15.0 15.0 15.0 15.0 15.0 15.0 7.4 15.0 15.0 2.7 0.9 9.4 0.9 3.5 15.0 15.0 15.0 15.0 15.0 15.0 15.0 15.0 15.0 15.0
15.0 15.0 15.0 15.0 15.0 15.0 15.0 15.0 15.0 15.0 15.0 15.0 15.0 15.0 15.0 15.0 15.0 15.0 15.0 15.0 15.0 9.8 15.0 10.3 0.3 0.7 0.6 1.9 4.4 15.0 14.9 15.0 15.0 15.0 15.0 15.0 15.0 15.0
15.0 15.0 15.0 15.0 15.0 15.0 15.0 15.0 15.0 15.0 15.0 15.0 8.4 15.0 15.0 15.0 15.0 15.0 15.0 15.0 15.0 15.0 15.0 15.0 4.8 13.2 0.7 0.5 1.3 15.0 15.0 15.0 14.2 15.0 15.0 15.0 15.0 15.0
15.0 15.0 15.0 15.0 15.0 15.0 15.0 15.0 15.0 15.0 15.0 15.0 15.0 10.5 11.7 15.0 15.0 15.0 13.7 14.5 3.2 14.7 15.0 15.0 15.0 15.0 0.9 0.9 2.1 1.4 15.0 0.4 15.0 15.0 15.0 15.0 15.0 15.0
15.0 15.0 15.0 15.0 15.0 15.0 15.0 15.0 15.0 15.0 15.0 15.0 14.4 15.0 15.0 11.3 11.1 7.9 9.2 3.1 0.7 3.4 10.9 15.0 15.0 15.0 15.0 15.0 2.9 15.0 15.0 15.0 15.0 15.0 15.0 11.6 15.0 15.0
15.0 15.0 15.0 15.0 15.0 15.0 15.0 15.0 15.0 15.0 15.0 15.0 7.1 4.1 1.6 1.6 1.6 3.3 1.2 0.7 0.7 5.1 7.8 14.6 7.3 3.8 14.9 15.0 13.6 13.9 14.2 15.0 15.0 15.0 15.0 0.4 5.3 15.0
15.0 15.0 15.0 13.5 15.0 15.0 10.6 6.9 15.0 15.0 9.8 3.1 1.4 1.0 0.7 0.8 2.1 2.7 2.2 1.4 1.8 6.7 13.0 14.9 12.8 0.9 0.2 3.0 15.0 15.0 15.0 15.0 15.0 15.0 15.0 14.9 8.1 15.0
15.0 15.0 15.0 15.0 15.0 10.9 7.3 15.0 10.4 5.7 2.5 1.6 1.3 1.1 0.7 0.6 1.0 1.9 1.8 0.7 2.1 8.6 7.0 13.3 1.9 5.0 0.4 0.6 0.2 13.9 15.0 15.0 15.0 15.0 15.0 15.0 15.0 15.0
15.0 15.0 15.0 15.0 15.0 11.4 15.0 15.0 6.8 1.6 1.1 0.4 1.2 0.9 1.2 0.4 1.1 2.4 1.4 4.8 2.4 1.0 1.5 15.0 15.0 15.0 15.0 7.9 0.2 11.7 15.0 15.0 15.0 15.0 15.0 0.6 2.0 12.6
15.0 15.0 15.0 15.0 15.0 5.1 14.7 15.0 4.9 3.3 2.5 2.5 2.3 1.0 0.6 0.2 0.2 0.4 0.7 0.4 1.3 1.1 1.4 15.0 15.0 15.0 1.7 0.3 0.8 4.5 15.0 15.0 15.0 15.0 15.0 13.0 7.2 0.2
15.0 15.0 15.0 15.0 11.2 4.1 4.3 15.0 7.4 3.7 3.2 1.4 1.4 0.7 0.6 0.3 0.9 0.3 0.4 1.4 1.1 0.6 3.1 1.5 14.7 15.0 5.2 4.2 4.2 5.2 11.0 8.9 15.0 15.0 15.0 15.0 15.0 15.0